Regional Weather Roundup
Issued by NWS

Home | Current Version | Previous Version | Graphics & Text | Print | Product List | Glossary On
Versions: 1 2 3 4 5 6 7 8 9 10 11 12 13 14 15 16 17 18 19 20 21 22 23 24 25 26 27 28 29 30 31 32 33 34 35 36 37 38 39 40 41 42 43 44 45 46 47 48 49 50
689
ASUS43 KIND 271609
RWRIN

WEATHER ROUNDUP FOR INDIANA
NATIONAL WEATHER SERVICE INDIANAPOLIS IN
1200 PM EDT MON MAR 27 2017

NOTE: "FAIR" INDICATES FEW OR NO CLOUDS BELOW 12,000 FEET WITH NO
SIGNIFICANT WEATHER AND/OR OBSTRUCTIONS TO VISIBILITY.

* - STATION DOES NOT REPORT WEATHER SUCH AS PRECIPITATION OR FOG.

+ - STATION NOT QUALITY CONTROLLED BY THE NATIONAL WEATHER SERVICE.
    USE DATA WITH CAUTION...ESPECIALLY DEWPOINT AND RELATIVE
    HUMIDITY OBSERVATIONS.

INZ001>003-010>013-019-020-271700-
NORTHWEST INDIANA

CITY           SKY/WX    TMP DP  RH WIND       PRES   REMARKS
GARY /AIRPORT/ CLOUDY    46  45  93 NE7       29.97R FOG
KNOX *+        CLOUDY    52  34  50 CALM      29.95S
LA PORTE +     CLOUDY    51  48  89 S5        29.96R
MICHIGAN CITY+ CLOUDY    46  46 100 CALM      29.97R
MONTICELLO +   CLOUDY    53  49  85 S5        29.95F
RENSSELAER +   CLOUDY    54  50  87 CALM      29.95S
VALPARAISO     CLOUDY    53  49  86 CALM      29.95S

$$

LMZ046-743>745-271700-
SOUTHERN LAKE MICHIGAN

STATION/POSITION TIME  TEMP    WIND        PRES    WAVE
                       AIR SEA DIR/SP/G            HT
                 (UTC) (F)     (DEG/KT/KT) (MB)    (FT)
BURNS HARBOR     1600   42      50/  8/ 11 1015.2
MICHIGAN CITY    1540   40      40/  9/ 10   N/A

$$

INZ004-005-014>016-021>024-271700-
NORTH CENTRAL INDIANA

CITY           SKY/WX    TMP DP  RH WIND       PRES   REMARKS
ELKHART        CLOUDY    54  48  82 N6        29.94F
GOSHEN         CLOUDY    56  48  74 SE6       29.94F
LOGANSPORT +   CLOUDY    54  50  87 S3        29.96F
PERU/GRISSOM   CLOUDY    56  53  92 S5        29.94F
ROCHESTER +    CLOUDY    55  48  76 S3        29.96F
SOUTH BEND     CLOUDY    50  49  96 N5        29.96S FOG
WARSAW +       CLOUDY    52  46  82 CALM      29.96F

$$

INZ006>009-017-018-025>027-271700-
NORTHEAST INDIANA

CITY           SKY/WX    TMP DP  RH WIND       PRES   REMARKS
ANGOLA *+      CLOUDY    54  45  71 SW6       29.96S
AUBURN +       CLOUDY    54  46  76 CALM      29.97F
FORT WAYNE     CLOUDY    56  48  74 NW3       29.96F
HUNTINGTON +   CLOUDY    54  49  85 SW5       29.97S
KENDALLVILLE + CLOUDY    52  49  91 W5        29.97S

$$

INZ028-029-035-036-043>045-051>053-271700-
WEST CENTRAL INDIANA

CITY           SKY/WX    TMP DP  RH WIND       PRES   REMARKS
CRAWFORDSVL +  CLOUDY    55  51  86 SE5       29.96R
GREENCASTLE +  CLOUDY    59  50  72 S12       29.97R
LAFAYETTE      PTSUNNY   56  51  84 E3        29.95F
TERRE HAUTE    CLOUDY    60  50  69 SE9       29.95R

$$

INZ030>032-037>040-046>048-054>057-064-065-271700-
CENTRAL INDIANA

CITY           SKY/WX    TMP DP  RH WIND       PRES   REMARKS
ANDERSON       MOSUNNY   59  50  72 S6        29.96F
CP ATTERBURY + CLOUDY    59  50  72 S8        29.98R
COLUMBUS       SUNNY     57  54  88 SE9       29.99R
FISHERS *+     MOSUNNY   59  54  82 S7        29.95F
FRANKFORT +    CLOUDY    60  53  76 CALM      29.96F
GREENWOOD *+   CLOUDY    59  52  77 SE8       29.97S
INDIANAPOLIS   CLOUDY    59  50  72 SE12      29.95S
-EAGLE CREEK   MOSUNNY   60  50  69 SE9       29.94F
KOKOMO +       CLOUDY    56  50  80 S5        29.96F
MARION +       CLOUDY    56  50  80 CALM      29.96F
MT COMFORT *+  MOSUNNY   59  52  77 S8        29.96S
SHELBYVILLE    MOSUNNY   61  51  70 S10       29.97R
ZIONSVILLE +   CLOUDY    58  50  76 SE5       29.95F

$$

INZ033-034-041-042-049-050-058-059-271700-
EAST CENTRAL INDIANA

CITY           SKY/WX    TMP DP  RH WIND       PRES   REMARKS
MUNCIE         PTSUNNY   59  50  72 VRB5      29.96F
RICHMOND +     MOSUNNY   59  50  72 SE7       29.99F

$$

INZ060-061-067>069-081>083-085>088-271700-
SOUTHWEST INDIANA

CITY           SKY/WX    TMP DP  RH WIND       PRES   REMARKS
EVANSVILLE     CLOUDY    59  55  87 SE7       29.90S
HUNTINGBURG *+ CLOUDY    57  54  89 E8        29.91F
WASHINGTON +   LGT RAIN  55  52  89 MISG      29.88F

$$

INZ062-063-066-070>080-084-089>092-271700-
SOUTH CENTRAL AND SOUTHEAST INDIANA

CITY           SKY/WX    TMP DP  RH WIND       PRES   REMARKS
BEDFORD +      CLOUDY    57  48  72 SE7       29.97R
BLOOMINGTON    CLOUDY    60  50  69 SE10      29.96R
MADISON *+     CLOUDY    59  52  77 SE3       30.01S
NORTH VERNON + CLOUDY    59  48  67 SE6       29.99S
SEYMOUR +      CLOUDY    61  52  72 SE7       29.98S

$$





USA.gov is the U.S. government's official web portal to all federal, state and local government web resources and services.